Carbondale, IL

11:49 AM CST on December 05, 2019 (GMT -0600)
Southern Illinois

Weather History for KMDH - October, 2019

Change the Weather History Date:

Friday, October 18, 2019

  Actual Average Record
Temperature  
Mean Temperature 51 °F -  
Max Temperature 69 °F 65 °F 90 °F (1924)
Min Temperature 33 °F 41 °F 20 °F (1976)
Degree Days  
Heating Degree Days 14    
Growing Degree Days 1 (Base 50)    
Moisture  
Dew Point 37 °F    
Average Humidity 82    
Maximum Humidity 100    
Minimum Humidity 31    
Precipitation  
Precipitation 0.00 in - - ()
Sea Level Pressure  
Sea Level Pressure 30.02 in    
Wind  
Wind Speed 1 mph (SE)    
Max Wind Speed 10 mph    
Max Gust Speed 18 mph    
Visibility 5 miles    
Events Fog    
Averages and records for this station are not official NWS values.
T = Trace of Precipitation, MM = Missing Value Source: NWS Daily Summary

Daily Weather History Graph

Daily Weather History Graph

Search for Another Location

Airport or City:

Astronomy

Oct. 18, 2019 Rise Set
Actual Time 7:08 AM CDT 6:15 PM CDT
Civil Twilight 6:41 AM CDT 6:42 PM CDT
Nautical Twilight 6:10 AM CDT 7:12 PM CDT
Astronomical Twilight 5:40 AM CDT 7:43 PM CDT
Moon 9:36 PM CDT (10/18) 11:36 AM CDT (10/18)
Length of Visible Light 12h 00m
Length of Day
11h 07m
Waning Gibbous, 78% of the Moon is Illuminated
Oct 18
Waning Gibbous
Oct 21
Last Quarter
Oct 27
New
Nov 4
First Quarter
Nov 12
Full

Hourly Weather History & Observations

Time (CDT) Temp. Dew Point Humidity Pressure Visibility Wind Dir Wind Speed Gust Speed Precip Events Conditions
12:17 AM 41.0 °F 39.0 °F 93% 30.03 in 0.8 mi Calm Calm - N/A   Clear
12:26 AM 39.0 °F 37.9 °F 96% 30.03 in 1.5 mi Calm Calm - N/A   Clear
12:35 AM 37.9 °F 37.0 °F 97% 30.03 in 0.5 mi Calm Calm - N/A Fog Fog
12:41 AM 37.9 °F 36.0 °F 93% 30.03 in 2.0 mi Calm Calm - N/A   Clear
12:52 AM 37.0 °F 36.0 °F 96% 30.03 in 5.0 mi Calm Calm - N/A   Clear
1:00 AM 37.9 °F 36.0 °F 93% 30.03 in 1.5 mi Calm Calm - N/A   Clear
1:10 AM 37.0 °F 36.0 °F 96% 30.02 in 0.5 mi Calm Calm - N/A Fog Fog
1:26 AM 39.0 °F 37.0 °F 93% 30.02 in 0.5 mi Calm Calm - N/A Fog Fog
1:52 AM 37.9 °F 37.0 °F 97% 30.02 in 1.2 mi Calm Calm - N/A   Clear
1:58 AM 37.0 °F 36.0 °F 96% 30.02 in 3.0 mi Calm Calm - N/A   Clear
2:52 AM 36.0 °F 35.1 °F 97% 30.03 in 3.0 mi Calm Calm - N/A   Clear
3:48 AM 35.6 °F 35.6 °F 100% 30.03 in 1.5 mi Calm Calm - N/A   Clear
3:52 AM 36.0 °F 35.1 °F 97% 30.03 in 0.8 mi Calm Calm - N/A   Clear
4:08 AM 35.1 °F 34.0 °F 96% 30.03 in 1.5 mi Calm Calm - N/A   Clear
4:14 AM 35.1 °F 34.0 °F 96% 30.03 in 0.8 mi Calm Calm - N/A   Mist
4:25 AM 36.0 °F 35.1 °F 97% 30.04 in 1.5 mi Calm Calm - N/A   Partly Cloudy
4:27 AM 36.0 °F 35.1 °F 97% 30.04 in 3.0 mi Calm Calm - N/A   Partly Cloudy
4:52 AM 36.0 °F 34.0 °F 93% 30.05 in 8.0 mi Calm Calm - N/A   Clear
5:11 AM 35.1 °F 34.0 °F 96% 30.04 in 1.5 mi Calm Calm - N/A   Clear
5:16 AM 34.0 °F 33.1 °F 96% 30.04 in 0.8 mi Calm Calm - N/A   Mist
5:32 AM 34.0 °F 33.1 °F 96% 30.05 in 1.2 mi Calm Calm - N/A   Partly Cloudy
5:36 AM 35.1 °F 33.1 °F 92% 30.05 in 3.0 mi Calm Calm - N/A   Partly Cloudy
5:52 AM 34.0 °F 33.1 °F 96% 30.06 in 5.0 mi Calm Calm - N/A   Clear
6:14 AM 35.1 °F 33.1 °F 92% 30.06 in 2.5 mi Calm Calm - N/A   Clear
6:25 AM 35.1 °F 33.1 °F 92% 30.07 in 0.8 mi Calm Calm - N/A   Clear
6:39 AM 36.0 °F 34.0 °F 93% 30.07 in 1.0 mi Calm Calm - N/A   Clear
6:52 AM 34.0 °F 32.0 °F 92% 30.08 in 7.0 mi Calm Calm - N/A   Clear
6:59 AM 35.1 °F 33.1 °F 92% 30.07 in 0.8 mi Calm Calm - N/A   Clear
7:05 AM 34.0 °F 32.0 °F 92% 30.07 in 0.2 mi Calm Calm - N/A Fog Fog
7:13 AM 33.1 °F 32.0 °F 96% 30.07 in 7.0 mi Calm Calm - N/A   Clear
7:52 AM 36.0 °F 35.1 °F 97% 30.08 in 10.0 mi Calm Calm - N/A   Clear
8:52 AM 46.9 °F 43.0 °F 86% 30.08 in 10.0 mi Calm Calm - N/A   Clear
9:52 AM 55.0 °F 44.1 °F 67% 30.08 in 10.0 mi ESE 5.8 mph - N/A   Clear
10:52 AM 61.0 °F 42.1 °F 50% 30.06 in 10.0 mi SE 5.8 mph - N/A   Clear
11:52 AM 63.0 °F 41.0 °F 45% 30.05 in 10.0 mi SE 6.9 mph - N/A   Clear
12:52 PM 66.0 °F 39.9 °F 38% 30.02 in 10.0 mi East 8.1 mph - N/A   Clear
1:52 PM 66.9 °F 39.0 °F 36% 29.99 in 10.0 mi ESE 10.4 mph 16.1 mph N/A   Clear
2:52 PM 69.1 °F 37.0 °F 31% 29.96 in 10.0 mi SSE 6.9 mph 18.4 mph N/A   Clear
3:52 PM 69.1 °F 37.0 °F 31% 29.94 in 10.0 mi SSE 6.9 mph - N/A   Clear
4:52 PM 68.0 °F 37.0 °F 32% 29.92 in 10.0 mi SE 6.9 mph - N/A   Clear
5:52 PM 63.0 °F 39.0 °F 41% 29.91 in 10.0 mi ESE 5.8 mph - N/A   Clear
6:52 PM 57.0 °F 39.0 °F 51% 29.91 in 10.0 mi SSE 3.5 mph - N/A   Clear
7:52 PM 48.9 °F 42.1 °F 77% 29.92 in 10.0 mi Calm Calm - N/A   Clear
8:52 PM 48.0 °F 41.0 °F 77% 29.91 in 10.0 mi ESE 3.5 mph - N/A   Clear
9:52 PM 45.0 °F 39.9 °F 82% 29.90 in 10.0 mi Calm Calm - N/A   Clear
10:52 PM 43.0 °F 41.0 °F 93% 29.89 in 10.0 mi Calm Calm - N/A   Clear
11:52 PM 46.0 °F 42.1 °F 86% 29.88 in 10.0 mi Calm Calm - N/A   Clear